This is the latest recevied weather packets stored in our database for station/object N4QEP-13. If no packets are shown the sender has not sent any weather packets the latest 10 day(s).
| Time | Temp. | Humidity | Pressure | Rain* | Wind** | Luminosity | Snow |
|---|---|---|---|---|---|---|---|
| 1777955468 | 13.33° C | 67% | 1016.1 hPa | 0 mm | - | - | - |
| 1777954554 | 13.89° C | 67% | 1016 hPa | 0 mm | - | - | - |
| 1777953654 | 13.89° C | 66% | 1016.1 hPa | 0 mm | - | - | - |
| 1777952754 | 13.89° C | 66% | 1016.1 hPa | 0 mm | - | - | - |
| 1777951853 | 13.89° C | 66% | 1016 hPa | 0 mm | - | - | - |
| 1777950953 | 13.89° C | 65% | 1015.9 hPa | 0 mm | - | - | - |
| 1777950051 | 14.44° C | 64% | 1015.8 hPa | 0 mm | - | - | - |
| 1777949153 | 15° C | 64% | 1015.8 hPa | 0 mm | - | - | - |
| 1777948252 | 14.44° C | 64% | 1015.9 hPa | 0 mm | - | - | - |
| 1777947348 | 15° C | 62% | 1015.8 hPa | 0 mm | - | - | - |
| 1777946448 | 15.56° C | 61% | 1015.8 hPa | 0 mm | - | - | - |
| 1777945550 | 16.11° C | 59% | 1016 hPa | 0 mm | - | - | - |
| 1777944642 | 16.67° C | 58% | 1016.3 hPa | 0 mm | - | - | - |
| 1777943743 | 17.22° C | 55% | 1016.1 hPa | 0 mm | - | - | - |
| 1777942817 | 17.78° C | 53% | 1016.1 hPa | 0 mm | - | - | - |
| 1777941912 | 18.33° C | 50% | 1016.2 hPa | 0 mm | - | - | - |
| 1777941010 | 19.44° C | 48% | 1016.1 hPa | 0 mm | - | - | - |
| 1777940109 | 20° C | 46% | 1016 hPa | 0 mm | - | - | - |
| 1777939208 | 21.11° C | 43% | 1016 hPa | 0 mm | - | - | - |
| 1777938308 | 21.67° C | 40% | 1016.1 hPa | 0 mm | - | - | - |
| 1777937404 | 22.22° C | 40% | 1016.1 hPa | 0 mm | - | - | - |
| 1777936504 | 22.78° C | 39% | 1016 hPa | 0 mm | - | - | - |
| 1777935603 | 23.33° C | 38% | 1016.1 hPa | 0 mm | - | - | - |
| 1777934701 | 23.89° C | 35% | 1016.2 hPa | 0 mm | - | - | - |
| 1777933831 | 25° C | 32% | 1016 hPa | 0 mm | - | - | - |
* Rain latest hour (hover to see other rain measurements)
** Current wind speed in m/s (hover to see current wind gust speed)